sat.trackr.live / text

‹ back to catalog

STARLINK-31000

NORAD 58488 · 2023-186R

PAYLOAD ACTIVE UNKNOWN

§ Identity

Operator
Country
US
Launch date
2023-12-03
Launch site
AFETR
Launch vehicle
Mass (kg)
RCS (m²)

Purposes: comms

External: N2YO · Heavens-Above · Gunter

§ Orbital elements

Epoch: 2026-05-24T23:30:28.405152Z

Period
94.27 min
Inclination
43.0033°
Eccentricity
0.0001471
Mean motion
15.27577931 rev/d
Perigee alt
482.0 km
Apogee alt
484.1 km
Semi-major
6,861.2 km
B*
1.4804e-5
RAAN
352.8117°
Arg perigee
255.9256°
Mean anomaly
104.1432°
Rev number
13,755

§ Raw data

STARLINK-310001 58488U 23186R   26144.97949543  .00000145  00000+0  14804-4 0  99902 58488  43.0033 352.8117 0001471 255.9256 104.1432 15.27577931137555

JSON: /api/v1/satellites/58488 · /tle

For live sub-satellite position, see the globe view (requires WebGL).

§ Visibility from observer

Set your observer location to see the next 7 days of passes ≥ 10°. The values pass through the URL so the page stays shareable.

No JS? Fill the form by hand. The geolocation button needs JavaScript.